Tracking 19145 objects as of 26-Apr-2018
HD Live streaming from Space Station
objects crossing your sky now

FENGYUN 1C DEB

Track FENGYUN 1C DEB now!
10-day predictions


NORAD ID: 30246
Int'l Code: 1999-025XF
Perigee: 853.2 km
Apogee: 1,412.2 km
Inclination: 98.7 °
Period: 107.8 minutes
Semi major axis: 7503 km
RCS: 0.0544 m2 (small)
Launch date: May 10, 1999
Source: People's Republic of China (PRC)
Launch site: Taiyaun Space Center, China (TSC)

Note: This is SATELLITE DEBRIS
aabbcc
Your satellite tracking list
Your tracking list is empty




NASA's NSSDC Master Catalog

Two Line Element Set (TLE):
1 30246U 99025XF  18115.91139050  .00000099  00000-0  18097-3 0  9990
2 30246  98.6652 271.7254 0372439 251.8213 231.6747 13.35639068549227
Source of the keplerian elements: AFSPC